Location: Newark
(43.0658°N, 122.2322°W)
Time: 18:22:40
(UTC+00:00)

STARLINK-1553 - Pass Details

Date: 21 September 2020
Orbit: 378 x 381 km, 53.0° (Epoch: 28 October)

Event Time Altitude Azimuth Distance (km) Brightness Sun altitude
Exits shadow 12:09:24 15° 338° (NNW) 1,209 5.3 -19.8°
Maximum altitude 12:10:02 16° 352° (N) 1,180 5.4 -19.7°
Drops below altitude 10° 12:12:10 10° 32° (NNE) 1,483 6.5 -19.4°
Sets 12:14:52 0° 56° (NE) 2,345 8.3 -18.9°
